www.pogodaiklimat.ru

Погода и климат >> Архив погоды >> Кувейт >> Abdaly


ПОГОДА в Abdaly

  • Прогноз погоды в Abdaly
  • Монитор погоды в Abdaly
  • Климат города

АРХИВ ПОГОДЫ в Abdaly

Время (UTC), дата Ветер
(напр.,м/с)
 
Видим.   Явления Облачность Т
(С)
Тd
(С)
f
(%)
Тe
(С)
Тes
(С)
Комфортность P
(гПа)
Po
(гПа)
Тmin
(С)
Tmax
(С)
R
(мм)
R24
(мм)
S
(см)
06 6.12 Ю 3 7000 м дымка {туман} н/о +21.9 +19.7 87 +27 +27 душно 1011.1 1011.0
09 6.12 ЮЗ 5 12 км {ливн. осадки, дождь} н/о +24.8 +13.4 49 +27 +27 жарко 1008.5 1009.0
12 6.12 З 5 10 км {ливн. осадки, дождь} н/о +25.8 +12.8 44 +28 +28 жарко 1006.8 1007.0
15 6.12 СЗ 3 13 км н/о +20.6 +13.2 63 +23 +23 комфорт 1009.5 1010.0
18 6.12 СЗ 3 19 км н/о +17.3 +13.1 76 +17 +17 1011.7 1012.0
21 6.12 СЗ 3 17 км н/о +15.6 +13.4 87 +15 +15 1012.4 1012.0 +14.9 +26.2
00 7.12 СЗ 2 13 км н/о +13.5 +12.7 95 +13 +13 1012.9 1013.0
03 7.12 С 1 11 км н/о +11.9 +11.9 100 +12 +12 1014.1 1014.0
06 7.12 З 2 9000 м дымка н/о +17.4 +13.9 80 +18 +18 1016.4 1016.0
09 7.12 ЮЗ 2 16 км н/о +22.3 +10.1 46 +24 +24 комфорт 1015.1 1015.0
12 7.12 С 2 19 км н/о +23.0 +8.5 39 +24 +24 комфорт 1014.1 1014.0
15 7.12 З 1 18 км н/о +17.1 +10.4 65 +18 +18 1014.9 1015.0
18 7.12 З 1 16 км н/о +14.9 +10.5 75 +16 +16 1016.1 1016.0 0.0 +22.2
21 7.12 ЮЗ 1 17 км н/о +13.8 +11.3 85 +14 +14 1016.0 1016.0 +11.1 +23.9
00 8.12 Ю 1 10 км н/о +12.6 +11.3 92 +13 +13 1016.0 1016.0
03 8.12 ЮЗ 2 6000 м дымка н/о +15.7 +11.5 76 +16 +16 1016.4 1016.0
06 8.12 З 3 16 км н/о +19.0 +10.4 57 +20 +20 1018.5 1019.0
09 8.12 З 2 17 км н/о +22.9 +7.8 38 +24 +24 комфорт 1017.8 1018.0
12 8.12 В 1 18 км н/о +23.3 +8.3 38 +24 +24 комфорт 1016.7 1017.0
15 8.12 Ю 1 11 км н/о +19.3 +12.9 66 +22 +22 комфорт 1017.6 1018.0
18 8.12 Ю 1 10 км н/о +15.9 +14.0 88 +17 +17 1019.1 1019.0
21 8.12 Ю 1 4500 м дымка н/о +15.2 +15.2 100 +16 +16 1018.8 1019.0 +12.3 +25.0
00 9.12 ЮЗ 1 1600 м дымка н/о +12.8 +12.7 99 +13 +13 1018.5 1019.0
03 9.12 Ю 1 2400 м в посл. час туман {дымка} н/о +11.4 +11.3 99 +12 +12 1018.8 1019.0
06 9.12 Ю 1 7000 м дымка {туман} н/о +18.7 +15.8 83 +21 +21 комфорт 1020.5 1021.0
09 9.12 З 2 19 км н/о +22.9 +12.2 51 +26 +26 жарко 1019.3 1019.0
12 9.12 СВ 1 20 км н/о +23.8 +9.8 41 +25 +25 комфорт 1018.0 1018.0
15 9.12 СВ 2 15 км н/о +20.3 +13.5 65 +23 +23 комфорт 1018.6 1019.0
18 9.12 ЮВ 1 9000 м дымка н/о +17.1 +14.2 83 +19 +19 1019.6 1020.0
21 9.12 С 1 7000 м дымка н/о +15.9 +14.1 89 +17 +17 1018.7 1019.0 +11.2 +25.0
00 10.12 СЗ 2 11 км н/о +14.9 +13.2 90 +15 +15 1018.5 1019.0
03 10.12 С 1 4100 м дымка н/о +14.0 +14.0 100 +14 +14 1018.2 1018.0
06 10.12 С 1 4800 м дымка н/о +17.3 +15.0 86 +18 +18 1019.4 1019.0
09 10.12 СВ 2 14 км н/о +22.3 +11.3 50 +24 +24 комфорт 1017.9 1018.0
12 10.12 СВ 2 15 км н/о +23.6 -24.1 3 +20 +20 1017.0 1017.0
15 10.12 С 1 19 км н/о +19.6
18 10.12 С 1 12 км н/о +16.0
21 10.12 СЗ 2 12 км н/о +13.9 +13.3 +24.6
03 11.12 СЗ 2 2600 м дымка н/о +10.9
06 11.12 С 3 5000 м дымка н/о +15.2 -30.5 3 +15 +15 1022.8 1023.0
09 11.12 СВ 4 16 км н/о +20.4 +9.7 50 +22 +22 комфорт 1021.2 1021.0
12 11.12 СВ 3 18 км н/о +22.0 +15.5 67 +23 +23 комфорт 1020.3 1020.0
15 11.12 С 2 18 км н/о +17.7 +8.1 53 +18 +18 1021.3 1021.0
18 11.12 С 2 18 км н/о +13.5 +8.6 72 +13 +13 1021.9 1022.0
21 11.12 СЗ 2 8000 м дымка н/о +11.4 +9.2 86 +10 +10 1021.8 1022.0 +10.3 +22.6
00 12.12 С 2 5000 м дымка н/о +10.2 +9.4 95 +9 +9 1021.7 1022.0
03 12.12 СЗ 2 3700 м дымка н/о +9.4 +9.1 98 +7 +7 1022.2 1022.0
06 12.12 СЗ 2 12 км н/о +15.3 +10.8 75 +15 +15 1023.3 1023.0
09 12.12 СВ 2 16 км н/о +21.6 +8.1 42 +23 +23 комфорт 1021.5 1022.0
12 12.12 СВ 2 19 км н/о +22.7 +7.9 39 +24 +24 комфорт 1020.4 1020.0
15 12.12 В 1 11 км н/о +15.2 +8.8 66 +17 +17 1020.9 1021.0
18 12.12 З 2 8000 м дымка н/о +12.7 +9.1 79 +12 +12 1021.2 1021.0
21 12.12 З 1 5000 м дымка н/о +9.8 +9.8 100 +10 +10 1021.1 1021.0 +8.7 +23.5
00 13.12 З 2 5000 м дымка н/о +11.0 +9.6 91 +10 +10 1020.9 1021.0

 

Местоположение метеостанции Abdaly (Кувейт): широта 30.08 долгота 47.70 высота над уровнем моря 70 м.

В архиве по умолчанию представлена погода в Abdaly за последнюю неделю. Архивные данные за месяц целиком и за предыдущие месяцы, начиная с января 2011 года, Вы можете получить, выбрав интересующий диапазон дат из раскрывающегося списка и нажав кнопку "Ввод!".


*Определитесь, кто Вы:
робот инопланетянин человек

Внимание! Время в таблицах - всемирное. Для получения местного времени необходимо прибавить поправку, которая в Abdaly равна 3 ч.

Смотрите также архив погоды в соседних городах и на ближайших метеорологических станциях:

Погода в Sabriyah (Кувейт) (39 км)
Погода в Mitribah (Кувейт) (43 км)
Погода в Basrah Airport (Ирак) (50 км)
Погода в Jal Aliyah (Кувейт) (54 км)
Погода в Basrah (Ирак) (55 км)
Погода в Abadan (Иран) (62 км)
Погода в Bubiyan (Кувейт) (74 км)
Погода в Fao (Ирак) (78 км)
Погода в Jahra (Кувейт) (85 км)
Погода в Failaka Island (Кувейт) (88 км)

Пояснения к столбцам:

Ветер - указаны скорость ветра в м/с - средняя за 10 мин, порывы в срок и между сроками (в фигурных скобках) и направление, откуда дует ветер: С - северный, СВ - северо-восточный, В - восточный, ЮВ - юго-восточный, Ю - южный, ЮЗ - юго-западный, З - западный, СЗ - северо-западный.
Видимость - горизонтальная дальность видимости в метрах или километрах. При видимости от 1 до 10 км при отсутствии осадков обычно наблюдается дымка, при ухудшении видимости до 1 км и менее - туман. В сухую погоду видимость может ухудшаться дымом, пылью или мглою.
Явления - указаны атмосферные явления, наблюдавшиеся в срок или в последний час перед сроком; фигурными скобками обозначены явления, наблюдавшиеся между сроками (за 1-3 часа до срока); квадратными скобками обозначены град или гололедные отложения с указанием их диаметра в мм.
Облачность - указаны через наклонную черту общая и нижняя облачность в баллах и высота нижней границы облаков в метрах; квадратными скобками обозначены формы облаков: Ci - перистые, Cs - перисто-слоистые, Cc - перисто-кучевые, Ac - высококучевые, As - высокослоистые, Sc - слоисто-кучевые, Ns - слоисто-дождевые, Cu - кучевые, Cb - кучево-дождевые. Подробнее классификацию облаков см. в Атласе облаков (PDF).
T - Температура воздуха - температура, измеренная на высоте 2 м над землей.
Td - Температура точки росы - температура, при понижении до которой содержащийся в воздухе водяной пар достигнет насыщения.
f - Относительная влажность воздуха - влажноcть воздуха, измеренная на высоте 2 м над землей.
Te - Эффективная температура - температура, которую ощущает одетый по сезону человек в тени. Характеристика душности погоды. При расчете учитывается влияние влажности воздуха и скорости ветра на теплоощущения человека.
Tes - Эффективная температура на солнце - температура, которую ощущает человек, с поправкой на солнечный нагрев. Характеристика знойности погоды. Зависит от высоты солнца над горизонтом, облачности и скорости ветра. Ночью, в пасмурную погоду, а также при ветре 12 м/с и более поправка равна нулю.
P - Атмосферное давление - приведенное к уровню моря атмосферное давление.
Po - Атмосферное давление - измеренное на уровне метеостанции атмосферное давление.
Tmin - Минимальная температура - минимум температуры воздуха на высоте 2 м над землей.
Tmax - Максимальная температура - максимум температуры воздуха на высоте 2 м над землей.
R - Количество осадков - Количество выпавших осадков за период времени, мм. При наведении курсора мыши на число - период времени, за который выпало указанное количество осадков.
R24 - Количество осадков - Количество выпавших осадков за 24 часа, мм.
S - Снежный покров - Высота снежного покрова, см. При наведении курсора мыши на число - состояние снежного покрова и степень покрытия местности в баллах.